• Join FlightAware (Why Join?)
  • Login
  • US Flag 
12:34AM EDT


 

Airport Tracker/Info


-or-


 

Live Flight TrackerFlight Track Log ✈ GJS3710 ✈ 29-Apr-2013 ✈ KAUS - KORD

Flight Track Log - Related Links

Times and Time Zones

All times are in EDT time to prevent confusion due to time zone crossing. See the GJS3710 flight status page for this flight to view local times or setup timezone preferences in your user account.

Time Position Orientation Groundspeed Altitude Reporting Facility
EDT Latitude Longitude Course Direction KTS MPH feet Rate Location/Type
03:52PM 30.1489 -97.5947 338° Northwest 247 284 5,200  Level Houston Center
03:53PM 30.1908 -97.5231 56° Northeast 281 323 7,400 2,280 Climbing Houston Center
03:54PM 30.2747 -97.5122 North 297 342 10,000 1,980 Climbing Houston Center
03:55PM 30.3839 -97.5022 North 336 387 11,500 1,620 Climbing Houston Center
03:56PM 30.7057 -97.9106 334° Northwest  Level FlightAware Approximate
03:56PM 30.4872 -97.4925 North 362 417 13,400  Level Houston Center
03:57PM 30.8079 -97.9608 338° Northwest  Level FlightAware Approximate
03:57PM 30.5883 -97.4928 360° North 364 419 15,900  Level Houston Center
03:58PM 30.6872 -97.5219 346° North 361 415 17,700 1,740 Climbing Houston Center
03:59PM 30.7889 -97.5544 345° North 370 426 19,600 1,620 Climbing Houston Center
04:00PM 30.8961 -97.5511 North 381 438 21,100 1,380 Climbing Houston Center
04:01PM 31.0078 -97.5294 North 394 453 22,500 900 Climbing Houston Center
04:02PM 31.1236 -97.5083 North 408 470 23,000 720 Climbing Houston Center
04:03PM 31.2428 -97.4858 North 422 486 24,000 960 Climbing Houston Center
04:04PM 31.3636 -97.4639 North 430 495 25,000 900 Climbing Houston Center
04:05PM 31.4867 -97.4425 North 431 496 25,900 720 Climbing Fort Worth Center
04:06PM 31.6119 -97.4183 North 446 513 26,500 600 Climbing Fort Worth Center
04:07PM 31.7394 -97.3939 North 458 527 27,200 660 Climbing Fort Worth Center
04:08PM 31.8731 -97.3303 22° Northeast 458 527 27,900 1,020 Climbing Fort Worth Center
04:09PM 31.9878 -97.2714 24° Northeast 458 527 29,300 1,140 Climbing Fort Worth Center
04:10PM 32.0964 -97.2147 24° Northeast 456 525 30,200 900 Climbing Fort Worth Center
04:11PM 32.2278 -97.1506 22° Northeast 462 532 31,100 720 Climbing Fort Worth Center
04:12PM 32.3297 -97.0986 23° Northeast 450 518 31,700 600 Climbing Fort Worth Center
04:13PM 32.4611 -97.0317 23° Northeast 455 524 32,400 660 Climbing Fort Worth Center
04:14PM 32.5697 -96.9769 23° Northeast 454 522 33,100 660 Climbing Fort Worth Center
04:15PM 32.7008 -96.9097 23° Northeast 459 528 33,800 840 Climbing Fort Worth Center
04:16PM 32.8217 -96.8497 23° Northeast 459 528 34,800 840 Climbing Fort Worth Center
04:17PM 32.9236 -96.7997 22° Northeast 453 521 35,500 600 Climbing Fort Worth Center
04:18PM 33.0569 -96.7367 22° Northeast 460 529 36,000 480 Climbing Fort Worth Center
04:19PM 33.1736 -96.6714 25° Northeast 460 529 36,500 480 Climbing Fort Worth Center
04:20PM 33.2900 -96.6108 24° Northeast 454 522 37,000 240 Climbing Fort Worth Center
04:21PM 33.3942 -96.5525 25° Northeast 449 517 37,000  Level Fort Worth Center
04:22PM 33.5144 -96.4642 31° Northeast 455 524 37,000  Level Fort Worth Center
04:23PM 33.6119 -96.3908 32° Northeast 462 532 37,000  Level Fort Worth Center
04:24PM 33.7322 -96.2944 34° Northeast 462 532 37,000  Level Fort Worth Center
04:25PM 33.8358 -96.2133 33° Northeast 457 526 37,000  Level Fort Worth Center
04:26PM 33.9456 -96.1292 32° Northeast 457 526 37,000  Level Fort Worth Center
04:27PM 34.0511 -96.0472 33° Northeast 457 526 37,000  Level Fort Worth Center
04:28PM 34.1628 -95.9603 33° Northeast 457 526 37,000  Level Fort Worth Center
04:29PM 34.2703 -95.8756 33° Northeast 457 526 37,000  Level Fort Worth Center
04:30PM 34.3758 -95.7906 34° Northeast 457 526 37,000  Level Fort Worth Center
04:31PM 34.4853 -95.7053 33° Northeast 457 526 37,000  Level Fort Worth Center
04:32PM 34.5883 -95.6225 33° Northeast 457 526 37,000  Level Fort Worth Center
04:33PM 34.6875 -95.5472 32° Northeast 462 532 37,000  Level Fort Worth Center
04:34PM 34.7944 -95.4589 34° Northeast 462 532 37,000  Level Fort Worth Center
04:36PM 34.9883 -95.3072 33° Northeast 463 533 37,000  Level Memphis Center
04:37PM 35.0939 -95.2219 33° Northeast 463 533 37,000  Level Memphis Center
04:38PM 35.1994 -95.1367 33° Northeast 458 527 37,000  Level Memphis Center
04:39PM 35.3050 -95.0486 34° Northeast 458 527 37,000  Level Memphis Center
04:40PM 35.4103 -94.9653 33° Northeast 458 527 37,000  Level Memphis Center
04:41PM 35.5178 -94.8769 34° Northeast 458 527 37,000  Level Memphis Center
04:42PM 35.6231 -94.7908 34° Northeast 458 527 37,000  Level Memphis Center
04:43PM 35.7306 -94.7044 33° Northeast 458 527 37,000  Level Memphis Center
04:44PM 35.8378 -94.6153 34° Northeast 458 527 37,000  Level Memphis Center
04:45PM 35.9450 -94.5286 33° Northeast 458 527 37,000  Level Memphis Center
04:46PM 36.0522 -94.4389 34° Northeast 458 527 37,000  Level Memphis Center
04:48PM 36.2367 -94.2828 34° Northeast 462 532 37,000  Level Kansas City Center
04:49PM 36.3444 -94.1922 34° Northeast 467 537 37,000  Level Kansas City Center
04:50PM 36.4558 -94.1025 33° Northeast 474 545 37,000  Level Kansas City Center
04:51PM 36.5622 -94.0122 34° Northeast 466 536 37,000  Level Kansas City Center
04:52PM 36.6694 -93.9217 34° Northeast 467 537 37,000  Level Kansas City Center
04:53PM 36.7981 -93.8131 34° Northeast 468 539 37,000  Level Kansas City Center
04:54PM 36.8972 -93.7281 34° Northeast 460 529 37,000  Level Kansas City Center
04:55PM 37.0036 -93.6364 35° Northeast 462 532 37,000  Level Kansas City Center
04:56PM 37.1119 -93.5444 34° Northeast 466 536 37,000  Level Kansas City Center
04:57PM 37.2419 -93.4333 34° Northeast 469 540 37,000  Level Kansas City Center
04:58PM 37.3506 -93.3397 34° Northeast 472 543 37,000  Level Kansas City Center
04:59PM 37.4558 -93.2453 35° Northeast 466 536 37,000  Level Kansas City Center
05:00PM 37.5606 -93.1467 37° Northeast 467 537 37,000  Level Kansas City Center
05:01PM 37.6692 -93.0469 36° Northeast 478 550 37,000  Level Kansas City Center
05:02PM 37.7742 -92.9481 37° Northeast 472 543 37,000  Level Kansas City Center
05:03PM 37.8817 -92.8475 36° Northeast 478 550 37,000  Level Kansas City Center
05:04PM 38.0033 -92.7333 36° Northeast 474 545 37,000  Level Kansas City Center
05:05PM 38.1100 -92.6336 36° Northeast 476 548 37,000  Level Kansas City Center
05:06PM 38.2269 -92.5231 37° Northeast 476 548 37,000  Level Kansas City Center
05:07PM 38.3342 -92.4206 37° Northeast 477 549 37,000  Level Kansas City Center
05:08PM 38.4417 -92.3186 37° Northeast 477 549 37,000  Level Kansas City Center
05:09PM 38.5475 -92.2161 37° Northeast 475 547 37,000  Level Kansas City Center
05:10PM 38.6533 -92.1147 37° Northeast 475 547 37,000  Level Kansas City Center
05:11PM 38.7597 -92.0122 37° Northeast 475 547 37,000  Level Kansas City Center
05:12PM 38.8661 -91.9092 37° Northeast 477 549 37,000  Level Kansas City Center
05:13PM 38.9944 -91.7861 37° Northeast 478 550 37,000  Level Kansas City Center
05:14PM 39.1000 -91.6825 37° Northeast 477 549 37,000  Level Kansas City Center
05:15PM 39.1933 -91.5922 37° Northeast 480 552 37,000  Level Kansas City Center
05:16PM 39.3222 -91.4647 37° Northeast 485 558 37,000  Level Kansas City Center
05:18PM 39.4286 -91.3600 37° Northeast 483 556 37,000  Level Kansas City Center
05:19PM 39.5353 -91.2544 37° Northeast 482 555 37,000  Level Kansas City Center
05:20PM 39.6419 -91.1475 38° Northeast 483 556 37,000  Level Kansas City Center
05:21PM 39.7489 -91.0411 37° Northeast 483 556 37,000  Level Kansas City Center
05:22PM 39.8700 -90.9197 38° Northeast 480 552 37,000 -540 Level Kansas City Center
05:23PM 39.9775 -90.8136 37° Northeast 483 556 35,900 -1,380 Descending Kansas City Center
05:24PM 40.0844 -90.7022 39° Northeast 488 562 34,200 -1,500 Descending Kansas City Center
05:25PM 40.1633 -90.6225 38° Northeast 487 560 33,100 -660 Descending Chicago Center
05:26PM 40.2783 -90.5050 38° Northeast 493 567 33,000 -60 Descending Chicago Center
05:27PM 40.3858 -90.3947 38° Northeast 490 564 33,000  Level Chicago Center
05:28PM 40.5144 -90.2631 38° Northeast 487 560 33,000  Level Chicago Center
05:29PM 40.6181 -90.1503 40° Northeast 481 554 33,000 -540 Level Chicago Center
05:30PM 40.7303 -90.0417 36° Northeast 493 567 31,900 -1,560 Descending Chicago Center
05:31PM 40.8394 -89.9281 38° Northeast 500 575 29,800 -2,100 Descending Chicago Center
05:32PM 40.9450 -89.8183 38° Northeast 483 556 27,600 -2,100 Descending Chicago Center
05:33PM 41.0569 -89.6983 39° Northeast 481 554 25,500 -2,040 Descending Chicago Center
05:34PM 41.1619 -89.5819 40° Northeast 490 564 23,500 -2,100 Descending Chicago Center
05:35PM 41.2264 -89.4256 61° Northeast 485 558 21,200 -2,280 Descending Chicago Center
05:36PM 41.2894 -89.2753 61° Northeast 470 541 18,800 -2,520 Descending Chicago Center
05:37PM 41.3500 -89.1147 63° Northeast 449 517 16,000 -2,340 Descending Chicago Center
05:38PM 41.4067 -88.9725 62° Northeast 440 506 14,000 -1,980 Descending Chicago Center
05:39PM 41.4744 -88.8053 62° Northeast 429 494 12,000 -1,500 Descending Chicago Center
05:40PM 41.5292 -88.6692 62° Northeast 418 481 11,000 -660 Descending Chicago Center
05:41PM 41.5736 -88.5517 63° Northeast 354 407 10,700 -720 Descending Chicago Center
05:42PM 41.6203 -88.4472 59° Northeast 329 379 9,600 -1,020 Descending Chicago Center
05:43PM 41.6744 -88.3550 52° Northeast 318 366 8,600 -960 Descending Chicago Center
05:44PM 41.7272 -88.2639 52° Northeast 310 357 7,600 -780 Descending Chicago Center
05:45PM 41.7975 -88.1764 43° Northeast 289 333 7,000 -300 Descending Chicago Center
05:46PM 41.8597 -88.1447 21° North 236 272 7,000  Level Chicago Center
05:47PM 41.9000 -88.1167 27° Northeast 229 264 7,000  Level Chicago TRACON
05:48PM 41.9667 -88.1000 11° North 221 254 7,000  Level Chicago TRACON
05:49PM 42.0167 -88.1333 334° Northwest 203 234 7,000  Level Chicago TRACON
05:49PM 42.0256 -88.1422 323° Northwest 205 236 7,000  Level Chicago Center
05:50PM 42.0803 -88.1961 324° Northwest 205 236 7,000 -540 Level Chicago Center
05:51PM 42.1264 -88.2381 326° Northwest 203 234 6,000 -900 Descending Chicago Center
05:53PM 42.1717 -88.2833 323° Northwest 203 234 5,200 -540 Descending Chicago Center
05:54PM 42.2169 -88.2478 30° Northeast 220 253 5,000 -120 Descending Chicago Center
05:55PM 42.1969 -88.1781 111° Southeast 206 237 5,000  Level Chicago Center
05:56PM 42.1625 -88.1247 131° Southeast 196 226 5,000 -540 Level Chicago Center
05:57PM 42.1161 -88.0747 141° Southeast 182 209 4,000 -840 Descending Chicago Center
05:57PM 42.1000 -88.0500 131° Southeast 163 188 3,600 -720 Descending Chicago TRACON
05:58PM 42.0500 -88.0167 154° Southeast 172 198 2,800 -840 Descending Chicago TRACON